Kahului, HI

9:17 AM HST on July 28, 2017 (GMT -1000)
Kahului

Weather History for PHOG - January, 2013

Change the Weather History Date:

Sunday, January 20, 2013

  Actual Average Record
Temperature  
Mean Temperature 72 °F 72 °F  
Max Temperature 78 °F 81 °F 88 °F (2012)
Min Temperature 65 °F 63 °F 48 °F (1969)
Degree Days  
Heating Degree Days 0 0  
Month to date heating degree days 0 0  
Since 1 July heating degree days 0 0  
Cooling Degree Days 7 7  
Month to date cooling degree days 148 140  
Year to date cooling degree days 148 140  
Growing Degree Days 21 (Base 50)    
Moisture  
Dew Point 56 °F    
Average Humidity 58    
Maximum Humidity 68    
Minimum Humidity 47    
Precipitation  
Precipitation 0.00 in 0.09 in 4.68 in (1952)
Month to date precipitation 0.96 1.90  
Year to date precipitation 0.96 1.90  
Snow  
Snow 0.00 in - - ()
Month to date snowfall 0.0  
Since 1 July snowfall 0.0  
Snow Depth 0.00 in    
Sea Level Pressure  
Sea Level Pressure 30.06 in    
Wind  
Wind Speed 15 mph (NNE)    
Max Wind Speed 22 mph    
Max Gust Speed 25 mph    
Visibility 10 miles    
Events      
T = Trace of Precipitation, MM = Missing Value Source: NWS Daily Summary

Daily Weather History Graph

Daily Weather History Graph

Search for Another Location

Airport or City:

Trip Planner

Search our weather history database for the weather conditions in past years. The results will help you decide how hot, cold, wet, or windy it might be!

Date:

Astronomy

Jan. 20, 2013 Rise Set
Actual Time 7:04 AM HST 6:09 PM HST
Civil Twilight 6:41 AM HST 6:32 PM HST
Nautical Twilight 6:14 AM HST 6:59 PM HST
Astronomical Twilight 5:47 AM HST 7:26 PM HST
Moon 1:16 PM HST (1/20) 1:50 AM HST (1/20)
Length of Visible Light 11h 51m
Length of Day
11h 04m
Waxing Gibbous, 68% of the Moon is Illuminated
Jan 20
Waxing Gibbous
Jan 26
Full
Feb 3
Last Quarter
Feb 9
New
Feb 17
First Quarter

Hourly Weather History & Observations

Time (HST) Temp. Dew Point Humidity Pressure Visibility Wind Dir Wind Speed Gust Speed Precip Events Conditions
12:54 AM 70.0 °F 55.0 °F 59% 30.06 in 10.0 mi NNE 18.4 mph - N/A   Partly Cloudy
1:54 AM 69.1 °F 55.0 °F 61% 30.04 in 10.0 mi NNE 13.8 mph - N/A   Clear
2:54 AM 69.1 °F 54.0 °F 58% 30.03 in 10.0 mi North 15.0 mph - N/A   Clear
3:54 AM 69.1 °F 55.0 °F 61% 30.02 in 10.0 mi NNE 15.0 mph - N/A   Partly Cloudy
4:54 AM 70.0 °F 57.9 °F 65% 30.02 in 10.0 mi NNE 18.4 mph - N/A   Scattered Clouds
5:54 AM 69.1 °F 55.9 °F 63% 30.03 in 10.0 mi NE 17.3 mph - N/A   Clear
6:54 AM 69.1 °F 55.0 °F 61% 30.06 in 10.0 mi NNE 17.3 mph - N/A   Partly Cloudy
7:54 AM 70.0 °F 54.0 °F 57% 30.07 in 10.0 mi NNE 15.0 mph - N/A   Partly Cloudy
8:54 AM 73.9 °F 57.0 °F 55% 30.09 in 10.0 mi NNE 16.1 mph - N/A   Partly Cloudy
9:54 AM 75.9 °F 55.9 °F 50% 30.10 in 10.0 mi NNE 17.3 mph - N/A   Scattered Clouds
10:54 AM 75.9 °F 55.0 °F 48% 30.10 in 10.0 mi NNE 16.1 mph - N/A   Clear
11:54 AM 75.9 °F 57.0 °F 52% 30.09 in 10.0 mi NE 17.3 mph - N/A   Partly Cloudy
12:54 PM 77.0 °F 55.9 °F 48% 30.06 in 10.0 mi NE 19.6 mph - N/A   Partly Cloudy
1:54 PM 75.9 °F 55.0 °F 48% 30.03 in 10.0 mi NNE 16.1 mph - N/A   Partly Cloudy
2:54 PM 75.9 °F 55.0 °F 48% 30.02 in 10.0 mi NNE 17.3 mph - N/A   Partly Cloudy
3:54 PM 75.0 °F 55.9 °F 51% 30.02 in 10.0 mi NNE 15.0 mph - N/A   Partly Cloudy
4:54 PM 73.9 °F 55.9 °F 53% 30.03 in 10.0 mi NNE 12.7 mph - N/A   Partly Cloudy
5:54 PM 72.0 °F 57.0 °F 59% 30.04 in 10.0 mi NNE 12.7 mph - N/A   Partly Cloudy
6:54 PM 71.1 °F 57.9 °F 63% 30.05 in 10.0 mi NNE 13.8 mph - N/A   Partly Cloudy
7:54 PM 71.1 °F 57.9 °F 63% 30.06 in 10.0 mi NNE 11.5 mph - N/A   Clear
8:54 PM 71.1 °F 57.9 °F 63% 30.09 in 10.0 mi NNE 15.0 mph - N/A   Partly Cloudy
9:54 PM 71.1 °F 57.9 °F 63% 30.09 in 10.0 mi NNE 15.0 mph - N/A   Partly Cloudy
10:54 PM 71.1 °F 60.1 °F 68% 30.09 in 10.0 mi NE 9.2 mph 18.4 mph N/A   Scattered Clouds
11:54 PM 70.0 °F 59.0 °F 68% 30.08 in 10.0 mi NE 16.1 mph - N/A   Scattered Clouds